EHI
0 0 0 0 0 0 0 0 0 0 2 8 11 9 10 12 9 6 7 7 4 2 1 0 0 0 0 0 0 0 0 0 0 0 0 0 0 0 0 0 0 0 0 0
0 0 0 0 0 0 0 0 0 0 4 9 11 9 10 10 7 5 7 6 4 2 1 1 0 0 0 0 0 0 0 0 0 0 0 0 0 0 0 0 0 0 0 0
0 0 0 0 0 0 1 2 3 4 7 10 10 7 7 7 5 5 6 5 3 2 2 2 1 0 0 0 0 0 0 0 0 0 0 0 0 0 0 0 0 0 0 0
0 0 0 1 1 1 2 5 8 9 10 10 8 4 4 4 5 5 4 3 2 1 1 2 1 0 0 0 0 0 0 0 0 0 0 0 0 0 0 0 0 0 0 0
0 0 0 1 2 2 2 5 8 9 10 8 5 2 3 4 4 3 2 1 1 0 0 1 1 0 0 0 0 0 0 0 0 0 0 0 0 0 0 0 0 0 0 0
0 0 0 1 1 1 1 2 4 6 5 3 2 2 3 3 2 1 1 1 0 0 0 0 0 0 0 0 0 0 0 0 0 0 0 0 0 0 0 0 0 0 0 0
0 0 0 0 0 0 0 1 3 4 2 1 1 1 1 1 1 0 0 0 0 0 0 0 0 0 0 0 0 0 0 0 0 0 0 0 0 0 0 0 0 0 0 0
0 0 0 0 0 0 0 1 2 3 2 1 1 0 0 0 1 0 0 0 0 0 0 0 0 0 0 0 0 0 0 0 0 0 0 0 0 0 0 0 0 0 0 0
0 0 0 1 0 0 0 1 1 1 1 0 0 0 0 0 0 0 0 0 0 0 0 0 0 0 0 0 0 0 0 0 0 0 0 0 0 0 0 0 0 0 0 0
0 0 0 0 0 0 0 0 0 0 0 0 0 0 0 0 0 0 0 0 0 0 0 0 0 0 0 0 0 0 0 0 0 0 0 0 0 0 0 0 0 0 0 0
0 0 0 0 0 0 0 0 0 0 0 0 0 0 0 0 0 0 0 0 0 0 0 0 0 0 0 0 0 0 0 0 0 0 0 0 0 0 0 0 0 0 0 0
0 0 0 0 0 0 0 0 0 0 0 0 0 0 0 0 0 0 0 0 0 0 0 0 0 0 0 0 0 0 0 0 0 0 0 0 0 0 0 0 0 0 0 0
0 0 0 0 0 0 0 0 0 0 0 0 0 0 0 0 0 0 0 0 0 0 0 0 0 0 0 0 0 0 0 0 0 0 0 0 0 0 0 0 0 0 0 0
0 0 0 0 0 0 0 0 0 0 0 0 0 0 0 0 0 0 0 0 0 0 0 0 0 0 0 0 0 0 0 0 0 0 0 0 0 0 0 0 0 0 0 0
0 0 0 0 0 0 0 0 0 0 0 0 0 0 0 0 0 0 0 0 0 0 0 0 0 0 0 0 0 0 0 0 0 0 0 0 0 0 0 0 0 0 0 0
0 0 0 0 0 0 0 0 0 0 0 0 0 0 0 0 0 0 0 0 0 0 0 0 0 0 0 0 0 0 0 0 0 0 0 0 0 0 0 0 0 0 0 0
0 0 0 0 0 0 0 0 0 0 0 0 0 0 0 0 0 0 0 0 0 0 0 0 0 0 0 0 0 0 0 0 0 0 0 0 0 0 0 0 0 0 0 0
0 0 0 0 0 0 0 0 0 0 0 0 0 0 0 0 0 0 0 0 0 0 0 0 0 0 0 0 0 0 0 0 0 0 0 0 0 0 0 0 0 0 0 0
0 0 0 0 0 0 0 0 0 0 0 0 0 0 0 0 0 0 0 0 0 0 0 0 0 0 0 0 0 0 0 0 0 0 0 0 0 0 0 0 0 0 0 0
0 0 0 0 0 0 0 0 0 0 0 0 0 0 0 0 0 0 0 0 0 0 0 0 0 0 0 0 0 0 0 0 0 0 0 0 0 0 0 0 0 0 0 0
0 0 0 0 0 0 0 0 0 0 0 0 0 0 0 0 0 0 0 0 0 0 0 0 0 0 0 0 0 0 0 0 0 0 0 0 0 0 0 0 0 0 0 0
0 0 0 0 0 0 0 0 0 0 0 0 0 0 0 0 0 0 0 0 0 0 0 0 0 0 0 0 0 0 0 0 0 0 0 0 0 0 0 0 0 0 0 0
0 0 0 0 0 0 0 0 0 0 0 0 0 0 0 0 0 0 0 0 0 0 0 0 0 0 0 0 0 0 0 0 0 0 0 0 0 0 0 0 0 0 0 0
0 0 0 0 0 0 0 0 0 0 0 0 0 0 0 0 0 0 0 0 0 0 0 0 0 0 0 0 0 0 0 0 0 0 0 0 0 0 0 0 0 0 0 0
0 0 0 0 0 0 0 0 0 0 0 0 0 0 0 0 0 0 0 0 0 0 0 0 0 0 0 0 0 0 0 0 0 0 0 0 0 0 0 0 0 0 0 0
0 0 0 0 0 0 0 0 0 0 0 0 0 0 0 0 0 0 0 0 0 0 0 0 0 0 0 0 0 0 0 0 0 0 0 0 0 0 0 0 0 0 0 0
0 0 0 0 0 0 0 0 0 0 0 0 0 0 0 0 0 0 0 0 0 0 0 0 0 0 0 0 0 0 0 0 0 0 0 0 0 0 0 0 0 0 0 0
Wind_Speed
9 9 8 10 11 10 9 9 7 5 3 6 7 9 11 12 11 11 11 10 9 8 7 6 6 6 6 6 5 5 5 5 5 5 5 5 6 6 6 7 8 7 8 8
11 10 10 11 9 8 9 9 7 3 4 8 10 10 11 11 10 9 10 10 9 8 7 6 6 6 6 5 5 4 5 5 5 5 5 5 5 6 6 7 7 8 9 9
10 10 10 7 6 6 6 6 6 4 5 9 9 8 9 10 10 10 10 9 9 7 6 6 6 6 5 5 4 4 5 5 5 5 5 5 6 6 7 7 7 8 8 8
9 9 7 3 4 5 5 9 10 9 9 8 9 9 8 9 10 10 10 9 8 7 7 6 6 5 5 4 4 4 5 5 5 5 6 5 6 6 6 6 6 6 7 7
6 6 5 3 8 8 5 7 9 9 10 10 10 9 8 7 9 9 9 8 8 7 7 6 6 5 5 4 4 5 5 5 5 5 5 5 6 6 5 5 5 6 6 7
8 7 3 5 8 8 4 5 8 7 7 7 5 3 5 8 10 10 10 8 8 7 7 6 5 5 4 4 4 4 5 5 4 5 5 5 5 4 4 4 5 6 7 7
8 5 2 9 12 9 4 4 5 5 4 4 3 5 10 11 11 11 10 8 8 7 6 6 5 4 4 5 5 5 5 5 5 5 5 5 4 3 3 4 5 6 6 6
4 2 3 11 9 8 5 3 4 5 6 8 10 12 12 11 11 11 10 9 8 7 6 5 5 4 5 5 5 6 6 5 5 4 4 5 3 3 4 4 5 5 5 5
3 3 3 6 6 5 4 5 5 6 8 9 10 11 11 11 11 10 9 8 7 7 7 5 4 4 6 5 5 6 6 5 4 5 5 4 3 3 2 3 3 4 4 4
3 3 4 6 7 7 7 6 6 7 8 9 10 11 11 11 10 9 8 8 7 7 7 6 5 5 5 5 5 6 6 5 4 4 4 4 3 3 4 4 4 3 4 4
2 4 5 7 7 6 5 6 6 7 8 9 10 10 11 10 10 9 8 7 6 6 6 7 6 5 5 5 5 5 5 5 5 5 5 5 6 6 7 6 5 5 4 4
3 4 3 3 4 3 3 4 6 7 8 8 9 10 10 10 9 9 8 7 7 7 7 7 6 6 5 6 6 5 4 4 4 4 4 5 6 7 11 8 10 12 9 6
3 4 3 2 3 3 3 4 6 7 8 9 9 9 10 10 9 9 8 8 8 8 7 7 6 6 6 5 6 5 4 3 3 3 3 3 5 5 5 5 7 8 8 7
3 2 1 2 3 2 3 5 6 8 8 9 9 9 10 10 9 9 8 8 8 8 8 7 7 6 6 6 5 5 4 4 3 3 3 3 3 4 5 5 4 3 2 2
3 1 0 1 3 3 4 6 7 8 9 9 9 9 9 9 9 9 8 8 8 8 8 7 7 7 6 6 5 4 3 3 2 2 2 3 3 3 4 5 5 5 4 3
1 0 0 1 3 5 6 6 7 8 8 9 9 9 9 9 9 9 8 8 8 8 7 7 7 7 7 6 5 4 3 3 1 2 3 3 3 3 3 4 4 4 4 4
1 1 1 2 4 5 5 6 7 8 9 9 9 9 10 10 9 9 8 8 7 7 7 7 7 7 7 6 5 4 5 5 3 3 3 3 2 2 2 3 4 4 3 3
2 1 2 3 4 5 6 7 8 9 9 9 10 10 10 9 9 9 8 8 8 7 7 7 6 6 7 7 4 4 5 6 5 4 3 3 2 3 2 2 3 5 5 5
1 1 2 3 4 5 6 7 8 9 9 10 10 10 9 9 8 9 8 8 8 8 7 7 6 5 5 5 3 4 4 5 4 3 3 3 3 3 3 3 3 4 5 5
0 1 2 4 5 6 7 8 8 9 9 10 10 10 9 9 9 9 8 7 6 6 8 8 7 6 5 5 3 4 5 5 5 4 4 4 4 4 4 3 3 3 3 3
0 1 3 4 5 6 8 8 9 9 10 10 10 10 10 9 9 9 8 7 7 8 9 9 6 6 5 5 5 4 4 4 4 4 4 4 4 4 4 3 3 3 3 3
1 1 2 3 4 5 7 8 9 10 11 10 10 10 10 9 9 8 8 6 8 9 8 8 7 6 5 5 6 6 5 5 5 5 5 4 4 4 4 4 4 4 3 3
2 0 2 3 4 5 7 8 9 9 10 10 10 10 9 8 8 8 8 7 8 10 8 7 7 9 7 6 6 6 6 6 6 5 6 6 6 5 4 5 4 4 3 3
2 1 2 3 4 6 7 8 8 8 9 10 10 10 9 8 7 7 7 8 10 12 9 7 13 12 9 7 7 7 6 7 7 7 7 7 6 6 6 5 5 5 4 5
2 2 2 4 5 5 6 7 8 9 10 8 10 11 10 8 7 7 8 10 13 13 9 9 14 14 10 9 9 8 8 7 6 6 6 6 6 6 5 5 5 5 5 5
3 3 3 4 4 4 6 7 7 8 8 8 8 9 9 8 8 8 7 10 14 12 10 9 11 11 10 10 10 10 8 7 7 7 7 6 6 6 5 5 7 5 5 5
5 4 4 5 5 6 6 6 7 8 9 9 9 9 9 9 9 9 10 10 11 11 10 10 11 11 11 11 11 10 9 8 7 7 7 7 7 6 6 6 5 5 5 6
Wind_Direction
279 275 247 249 265 277 286 288 291 320 77 135 142 137 137 135 133 135 133 127 121 116 110 102 92 84 78 73 67 65 67 67 62 52 50 50 48 45 43 45 52 49 48 45
287 276 267 269 272 283 287 294 304 339 73 98 108 114 123 130 135 141 136 131 125 120 117 109 102 94 88 84 80 75 71 67 67 65 64 61 59 57 57 55 55 54 51 52
285 285 282 274 297 293 292 334 352 5 87 101 109 118 133 141 144 144 135 132 127 124 117 109 104 99 95 90 85 81 78 73 70 71 73 68 67 66 64 62 61 60 56 55
282 288 276 311 356 4 27 41 47 67 76 87 100 105 116 130 139 138 137 134 129 126 120 116 111 105 99 97 97 92 84 77 73 78 77 70 64 61 62 64 66 66 62 57
282 279 274 345 6 355 356 52 41 68 82 87 95 102 98 105 119 126 128 126 125 125 124 121 115 113 114 110 100 93 86 76 73 79 84 79 71 67 65 69 70 71 66 59
278 286 299 12 347 322 317 76 35 67 91 108 129 122 125 122 118 119 119 121 123 124 126 124 119 121 116 110 105 97 91 85 80 82 82 81 76 72 77 80 80 78 70 61
268 281 46 359 343 341 15 38 27 59 89 105 73 76 121 126 123 124 122 124 127 127 124 119 120 119 112 104 100 98 93 89 82 85 91 89 84 78 79 82 84 84 81 70
318 318 29 2 12 34 30 31 53 71 84 87 91 104 117 122 124 126 127 130 130 125 122 121 123 119 111 105 105 103 98 95 90 84 89 92 89 86 86 93 96 92 92 85
16 40 36 29 40 45 37 52 66 85 96 106 113 119 123 125 125 127 127 128 129 127 125 126 125 120 114 113 112 109 106 101 94 84 76 75 79 87 88 86 93 101 100 95
46 72 40 32 41 48 50 55 72 94 109 117 122 127 129 130 132 131 129 134 138 136 136 136 130 119 115 115 113 117 119 119 113 102 96 81 58 53 54 55 61 74 83 87
15 56 54 38 32 38 56 71 81 96 110 120 128 133 133 135 137 137 135 138 141 138 136 131 126 121 122 120 121 122 123 122 120 113 103 84 65 48 60 48 47 60 57 60
18 24 25 22 26 43 58 85 101 106 111 121 128 133 136 137 139 139 141 145 143 142 138 132 128 124 122 122 121 120 122 126 119 119 125 120 109 84 54 66 65 66 64 74
17 21 28 37 40 51 77 100 106 113 120 125 130 138 140 140 142 144 147 149 145 140 135 130 128 128 124 120 122 125 118 115 126 133 135 130 127 125 116 83 63 64 66 71
42 31 14 42 61 74 99 111 114 115 121 127 134 138 137 139 142 144 146 146 141 139 137 138 135 131 127 122 123 131 128 123 136 145 148 144 144 146 147 145 141 128 98 90
21 40 15 79 115 124 130 131 130 126 128 133 136 137 141 145 147 146 144 141 139 142 144 142 136 134 137 138 143 149 140 134 144 145 150 147 153 145 144 152 151 147 149 163
17 69 175 167 144 147 150 147 140 136 140 141 142 143 145 145 144 143 143 144 148 151 147 141 142 148 151 149 157 153 129 119 147 164 155 157 162 160 158 160 153 153 165 161
262 213 204 174 158 159 159 156 150 148 148 148 148 147 147 146 147 147 149 149 150 146 144 145 151 156 155 162 176 167 159 157 200 211 176 175 174 169 169 168 158 159 144 125
295 257 208 191 174 168 166 160 155 151 154 154 153 153 155 155 157 157 157 152 150 152 152 153 155 158 160 169 186 176 166 170 189 188 169 172 182 191 192 181 167 156 146 161
304 238 187 184 180 170 165 159 157 155 156 157 159 160 162 165 163 159 157 159 161 161 160 153 152 170 167 167 196 190 179 178 179 170 160 154 204 207 192 192 182 165 165 168
359 211 174 181 175 165 161 156 155 155 158 159 162 164 167 168 165 163 163 171 173 166 158 157 174 188 182 172 233 212 183 184 176 167 182 190 199 197 196 197 183 177 181 179
59 164 175 172 167 163 158 157 158 160 163 167 169 170 171 172 173 170 174 178 172 166 161 161 190 196 191 173 211 227 195 188 185 187 199 203 204 203 201 201 199 195 197 197
338 161 167 161 162 154 152 159 164 167 169 174 175 175 174 178 182 180 187 183 168 163 174 181 197 191 175 185 209 217 208 195 196 194 201 211 216 213 206 207 210 205 202 204
328 177 159 161 165 159 160 168 171 173 175 178 180 182 183 186 187 188 189 183 173 172 193 193 177 159 165 211 229 223 213 205 206 203 205 213 217 217 214 214 218 221 214 208
306 262 172 164 166 171 174 178 173 175 181 185 187 187 188 191 193 198 196 178 170 170 198 178 158 163 184 221 237 237 224 212 211 216 215 216 217 215 213 214 218 217 217 220
267 241 199 187 192 187 182 182 176 182 189 193 192 189 194 200 200 198 194 177 167 176 192 170 172 177 199 224 233 236 233 224 219 224 223 221 223 223 218 211 213 218 221 220
253 237 211 211 218 207 192 190 189 189 195 196 195 192 194 196 201 197 187 180 175 188 196 177 184 194 215 228 231 234 235 220 210 222 233 232 232 233 230 224 221 221 225 227
239 223 208 214 214 217 213 202 197 195 199 200 199 193 193 194 199 198 193 187 182 190 203 195 196 203 216 224 228 231 232 229 224 220 224 228 234 236 235 232 233 227 230 234